Location: Caltech
(34.1382°N, 118.1253°W)
Time: 07:38:47
(UTC-08:00)

Tiros 1 despin weight - All Passes

Search period start: 03 December 2016 00:00
Search period end: 13 December 2016 00:00
Orbit: 595 x 645 km, 48.2° (Epoch: 03 December)

Date Brightness Start Highest point End Pass type
(mag) Time Alt. Az. Time Alt. Az. Time Alt. Az.
03 Dec - 00:22:36 10° NW 00:25:28 16° N 00:28:22 10° NNE night (unlit)
03 Dec - 02:05:44 10° NNW 02:08:35 16° N 02:11:26 10° NE night (unlit)
03 Dec - 03:46:50 10° NW 03:51:13 38° NNE 03:55:36 10° E visible
03 Dec - 05:28:28 10° WNW 05:32:51 40° SW 05:37:14 10° SSE visible
03 Dec - 21:13:50 10° SW 21:18:20 74° SE 21:22:55 10° NE night (unlit)
03 Dec - 22:56:30 10° W 23:00:18 25° NNW 23:04:09 10° NNE night (unlit)
04 Dec - 00:40:43 10° NW 00:43:12 14° N 00:45:42 10° NNE night (unlit)
04 Dec - 02:22:46 10° NNW 02:26:14 20° NNE 02:29:42 10° ENE night (unlit)
04 Dec - 04:03:49 10° NW 04:08:30 68° NE 04:13:11 10° ESE visible
04 Dec - 05:46:26 10° W 05:49:44 19° SW 05:53:02 10° S visible
04 Dec - 19:50:41 10° S 19:54:11 23° SE 19:57:44 10° E night (unlit)
04 Dec - 21:31:04 10° WSW 21:35:29 56° NW 21:40:01 10° NE night (unlit)
04 Dec - 23:14:42 10° WNW 23:17:52 18° NNW 23:21:04 10° NNE night (unlit)
05 Dec - 00:58:22 10° NNW 01:00:56 14° N 01:03:32 10° NE night (unlit)
05 Dec - 02:39:40 10° NW 02:43:45 29° NNE 02:47:52 10° E visible
05 Dec - 04:20:58 10° WNW 04:25:37 61° SW 04:30:14 10° SE visible
05 Dec - 20:06:47 10° SSW 20:11:06 49° SE 20:15:30 10° ENE night (unlit)
05 Dec - 21:48:45 10° W 21:52:49 32° NNW 21:56:57 10° NE night (unlit)
05 Dec - 23:32:57 10° NW 23:35:33 15° N 23:38:11 10° NNE night (unlit)
06 Dec - 01:15:33 10° NNW 01:18:39 17° NNE 01:21:44 10° NE night (unlit)
06 Dec - 02:56:35 10° NW 03:01:07 48° NNE 03:05:40 10° ESE visible
06 Dec - 04:38:33 10° WNW 04:42:34 28° SW 04:46:35 10° SSE visible
06 Dec - 18:44:37 10° SSE 18:47:04 15° SE 18:49:32 10° E visible
06 Dec - 20:23:40 10° SW 20:28:10 80° NW 20:32:44 10° NE night (unlit)
06 Dec - 22:06:49 10° WNW 22:10:18 21° NNW 22:13:50 10° NNE night (unlit)
06 Dec - 23:50:53 10° NNW 23:53:18 14° N 23:55:44 10° NNE night (unlit)
07 Dec - 01:32:29 10° NNW 01:36:14 23° NNE 01:39:59 10° ENE night (unlit)
07 Dec - 03:13:37 10° NW 03:18:19 89° SSW 03:23:01 10° SE visible
07 Dec - 04:57:12 10° W 04:59:23 13° SW 05:01:36 10° SSW visible
07 Dec - 18:59:57 10° SSW 19:03:53 32° SE 19:07:54 10° ENE visible
07 Dec - 20:41:07 10° WSW 20:45:23 42° NNW 20:49:44 10° NE night (unlit)
07 Dec - 22:25:05 10° NW 22:27:56 16° NNW 22:30:48 10° NNE night (unlit)
08 Dec - 00:08:18 10° NNW 00:11:02 15° N 00:13:47 10° NE night (unlit)
08 Dec - 01:49:23 10° NW 01:53:41 36° NNE 01:58:01 10° E night (unlit)
08 Dec - 03:30:56 10° WNW 03:35:21 43° SW 03:39:47 10° SSE visible
08 Dec - 19:16:27 10° SW 19:20:52 69° SE 19:25:23 10° ENE visible
08 Dec - 20:59:01 10° W 21:02:47 26° NNW 21:06:38 10° NNE night (unlit)
08 Dec - 22:43:15 10° NW 22:45:39 14° N 22:48:04 10° NNE night (unlit)
09 Dec - 00:25:19 10° NNW 00:28:41 19° NNE 00:32:04 10° ENE night (unlit)
09 Dec - 02:06:20 10° NW 02:10:58 64° NE 02:15:37 10° ESE night (unlit)
09 Dec - 03:48:49 10° W 03:52:15 20° SW 03:55:41 10° S visible
09 Dec - 17:53:25 10° S 17:56:44 21° SE 18:00:06 10° E visible
09 Dec - 19:33:36 10° WSW 19:38:00 59° NW 19:42:29 10° NE visible
09 Dec - 21:17:11 10° WNW 21:20:20 18° NNW 21:23:31 10° NNE night (unlit)
09 Dec - 23:00:56 10° NNW 23:03:23 14° N 23:05:52 10° NE night (unlit)
10 Dec - 00:42:13 10° NW 00:46:12 28° NNE 00:50:14 10° E night (unlit)
10 Dec - 02:23:28 10° WNW 02:28:05 65° SW 02:32:44 10° SE night (unlit)
10 Dec - 18:09:25 10° SSW 18:13:38 45° SE 18:17:56 10° ENE visible
10 Dec - 19:51:16 10° W 19:55:18 33° NNW 19:59:26 10° NE visible
10 Dec - 21:35:27 10° NW 21:38:01 15° N 21:40:36 10° NNE night (unlit)
10 Dec - 23:18:07 10° NNW 23:21:05 17° NNE 23:24:04 10° NE night (unlit)
11 Dec - 00:59:07 10° NW 01:03:35 46° NNE 01:08:05 10° ESE night (unlit)
11 Dec - 02:40:59 10° WNW 02:45:04 30° SW 02:49:10 10° SSE night (unlit)
11 Dec - 16:47:30 10° SSE 16:49:37 13° SE 16:51:46 10° E daylight
11 Dec - 18:26:14 10° SW 18:30:41 85° NW 18:35:12 10° NE visible
11 Dec - 20:09:18 10° WNW 20:12:47 21° NNW 20:16:18 10° NNE visible
11 Dec - 21:53:26 10° NNW 21:55:44 14° N 21:58:05 10° NNE night (unlit)
11 Dec - 23:35:03 10° NNW 23:38:41 22° NNE 23:42:21 10° ENE night (unlit)
12 Dec - 01:16:08 10° NW 01:20:47 86° NE 01:25:28 10° SE night (unlit)
12 Dec - 02:59:27 10° W 03:01:54 14° SW 03:04:21 10° SSW night (unlit)
12 Dec - 17:02:36 10° SSW 17:06:27 29° SE 17:10:20 10° ENE visible
12 Dec - 18:43:38 10° WSW 18:47:53 44° NNW 18:52:13 10° NE visible
12 Dec - 20:27:34 10° NW 20:30:24 16° NNW 20:33:14 10° NNE visible
12 Dec - 22:10:51 10° NNW 22:13:28 15° N 22:16:06 10° NE night (unlit)
